Location: Mentone
(34.5413°N, 85.5351°W)
Time: 13:43:33
(UTC-06:00)

Vanguard 3 - All Passes

Search period start: 03 December 2016 00:00
Search period end: 13 December 2016 00:00
Orbit: 507 x 3267 km, 33.4° (Epoch: 02 December)

Date Brightness Start Highest point End Pass type
(mag) Time Alt. Az. Time Alt. Az. Time Alt. Az.
03 Dec - 02:46:07 10° SSW 02:58:44 37° SE 03:15:26 10° E visible
03 Dec - 04:56:47 10° WSW 05:13:43 71° SSE 05:33:22 10° E visible
03 Dec - 07:11:30 10° W 07:31:21 87° S 07:48:54 10° E daylight
03 Dec - 09:28:39 10° W 09:48:35 74° SSW 10:02:22 10° ESE daylight
03 Dec - 11:47:26 10° W 12:02:38 38° SW 12:12:34 10° SSE daylight
04 Dec - 01:35:06 10° S 01:44:18 22° SE 01:56:11 10° E visible
04 Dec - 03:42:55 10° SW 03:57:29 56° SSE 04:16:41 10° ENE visible
04 Dec - 05:55:47 10° WSW 06:14:05 83° S 06:33:24 10° E visible
04 Dec - 08:11:44 10° W 08:32:01 83° S 08:48:10 10° ESE daylight
04 Dec - 10:29:29 10° WNW 10:47:57 56° SSW 11:00:13 10° SE daylight
04 Dec - 12:50:31 10° W 13:00:10 19° SW 13:07:27 10° S daylight
05 Dec - 02:30:09 10° SSW 02:42:11 40° SE 02:59:06 10° E visible
05 Dec - 04:41:00 10° WSW 04:57:09 74° SSE 05:17:11 10° E visible
05 Dec - 06:55:28 10° W 07:14:51 87° S 07:33:10 10° E daylight
05 Dec - 09:12:12 10° W 09:32:12 71° SSW 09:46:51 10° ESE daylight
05 Dec - 11:30:59 10° W 11:46:19 35° SW 11:56:53 10° SSE daylight
06 Dec - 01:18:52 10° S 01:27:53 24° SE 01:40:11 10° E visible
06 Dec - 03:27:11 10° SW 03:40:57 60° SSE 04:00:17 10° ENE visible
06 Dec - 05:39:59 10° WSW 05:57:34 85° S 06:17:22 10° E visible
06 Dec - 07:55:32 10° W 08:15:33 81° SSW 08:32:32 10° ESE daylight
06 Dec - 10:12:58 10° WNW 10:31:32 52° SW 10:44:35 10° SE daylight
06 Dec - 12:34:45 10° W 12:43:53 17° SW 12:51:07 10° SSW daylight
07 Dec - 00:12:26 10° SE 00:14:21 10° ESE 00:16:24 10° ESE visible
07 Dec - 02:14:23 10° SSW 02:25:45 44° SE 02:42:39 10° ENE visible
07 Dec - 04:25:22 10° WSW 04:40:39 77° SSE 05:00:52 10° E visible
07 Dec - 06:39:33 10° W 06:58:21 86° S 07:17:19 10° E daylight
07 Dec - 08:55:50 10° WNW 09:15:42 67° SSW 09:31:10 10° SE daylight
07 Dec - 11:14:38 10° W 11:29:53 32° SW 11:40:58 10° SSE daylight
08 Dec - 01:02:53 10° S 01:11:34 27° SE 01:24:00 10° E visible
08 Dec - 03:11:37 10° SW 03:24:31 64° SSE 03:43:46 10° ENE visible
08 Dec - 05:24:18 10° W 05:41:05 86° S 06:01:15 10° E visible
08 Dec - 07:39:26 10° W 07:59:00 79° SSW 08:16:45 10° ESE daylight
08 Dec - 09:56:33 10° WNW 10:14:59 48° SW 10:28:47 10° SSE daylight
08 Dec - 12:19:19 10° W 12:27:31 15° SW 12:34:22 10° SSW daylight
08 Dec - 23:54:32 10° SE 23:58:11 12° SE 00:02:26 10° ESE visible
09 Dec - 01:58:48 10° SSW 02:09:26 47° SE 02:26:06 10° ENE visible
09 Dec - 04:09:51 10° WSW 04:24:15 80° SSE 04:44:29 10° E visible
09 Dec - 06:23:44 10° W 06:41:50 85° S 07:01:20 10° ESE daylight
09 Dec - 08:39:35 10° WNW 08:59:05 64° SSW 09:15:21 10° SE daylight
09 Dec - 10:58:26 10° W 11:13:21 29° SW 11:24:51 10° S daylight
10 Dec - 00:47:07 10° S 00:55:22 29° SE 01:07:43 10° E visible
10 Dec - 02:56:10 10° SW 03:08:14 68° SSE 03:27:11 10° E visible
10 Dec - 05:08:44 10° W 05:24:40 87° S 05:45:02 10° E visible
10 Dec - 07:23:26 10° W 07:42:24 76° SSW 08:00:49 10° ESE daylight
10 Dec - 09:40:16 10° W 09:58:20 44° SW 10:12:47 10° SSE daylight
10 Dec - 12:04:27 10° WSW 12:11:06 13° SW 12:16:58 10° SSW daylight
10 Dec - 23:37:50 10° SSE 23:42:06 14° SE 23:47:21 10° E visible
11 Dec - 01:43:20 10° SW 01:53:14 50° SE 02:09:29 10° ENE visible
11 Dec - 03:54:26 10° WSW 04:07:58 82° SSE 04:28:01 10° E visible
11 Dec - 06:08:01 10° W 06:25:19 84° S 06:45:13 10° ESE visible
11 Dec - 08:23:26 10° WNW 08:42:25 59° SSW 08:59:21 10° SE daylight
11 Dec - 10:42:26 10° W 10:56:45 26° SW 11:08:27 10° S daylight
12 Dec - 00:31:31 10° SSW 00:39:16 32° SE 00:51:21 10° E visible
12 Dec - 02:40:52 10° WSW 02:52:05 71° SSE 03:10:33 10° E visible
12 Dec - 04:53:15 10° W 05:08:18 87° S 05:28:42 10° E visible
12 Dec - 07:07:32 10° W 07:25:47 72° SSW 07:44:43 10° ESE daylight
12 Dec - 09:24:07 10° W 09:41:38 41° SW 09:56:34 10° SSE daylight
12 Dec - 11:50:56 10° WSW 11:54:39 11° SW 11:58:09 10° SW daylight
12 Dec - 23:21:36 10° SSE 23:26:07 15° SE 23:31:54 10° E visible
